Time,TemperatureF,DewpointF,PressureIn,WindDirection,WindDirectionDegrees,WindSpeedMPH,WindSpeedGustMPH,Humidity,HourlyPrecipIn,Conditions,Clouds,dailyrainin,SoftwareType,DateUTC
2013-01-15 00:03:00,29.0,23.0,30.37,SW,220,2.0,4.0,79,0.00,,,0.43,,2013-01-15 05:03:00,
2013-01-15 00:12:00,28.0,23.0,30.36,SSW,210,2.0,4.0,80,0.00,,,0.43,,2013-01-15 05:12:00,
2013-01-15 00:22:00,28.0,23.0,30.36,SSW,210,2.0,4.0,80,0.00,,,0.43,,2013-01-15 05:22:00,
2013-01-15 00:33:00,29.0,24.0,30.35,SSW,207,2.0,3.0,80,0.00,,,0.43,,2013-01-15 05:33:00,
2013-01-15 00:42:00,29.0,24.0,30.35,SSW,207,2.0,3.0,80,0.00,,,0.43,,2013-01-15 05:42:00,
2013-01-15 00:53:00,29.0,24.0,30.35,SSW,213,2.0,5.0,80,0.00,,,0.43,,2013-01-15 05:53:00,
2013-01-15 01:02:00,28.0,23.0,30.35,SSW,207,1.0,3.0,81,0.00,,,0.43,,2013-01-15 06:02:00,
2013-01-15 01:12:00,28.0,23.0,30.35,SSW,207,1.0,3.0,81,0.00,,,0.43,,2013-01-15 06:12:00,
2013-01-15 01:22:00,28.0,23.0,30.36,SSW,205,2.0,4.0,82,0.00,,,0.16,,2013-01-15 06:22:00,
2013-01-15 01:33:00,29.0,24.0,30.35,SW,217,2.0,6.0,81,0.00,,,0.16,,2013-01-15 06:33:00,
2013-01-15 01:43:00,29.0,24.0,30.35,SW,217,2.0,6.0,81,0.00,,,0.16,,2013-01-15 06:43:00,
2013-01-15 01:53:00,29.0,24.0,30.36,SSW,206,3.0,6.0,82,0.00,,,0.16,,2013-01-15 06:53:00,
2013-01-15 02:02:00,29.0,24.0,30.36,SW,217,3.0,6.0,82,0.00,,,0.16,,2013-01-15 07:02:00,
2013-01-15 02:12:00,29.0,24.0,30.36,SW,217,3.0,6.0,82,0.00,,,0.16,,2013-01-15 07:12:00,
2013-01-15 02:22:00,29.0,25.0,30.36,SW,215,2.0,4.0,83,0.00,,,0.08,,2013-01-15 07:22:00,
2013-01-15 02:33:00,29.0,24.0,30.36,SW,215,2.0,3.0,82,0.00,,,0.08,,2013-01-15 07:33:00,
2013-01-15 02:42:00,29.0,24.0,30.36,SW,215,2.0,3.0,82,0.00,,,0.08,,2013-01-15 07:42:00,
2013-01-15 02:53:00,29.0,25.0,30.37,SW,226,0.0,3.0,83,0.00,,,0.08,,2013-01-15 07:53:00,
2013-01-15 03:02:00,29.0,25.0,30.37,SW,221,1.0,4.0,83,0.00,,,0.08,,2013-01-15 08:02:00,
2013-01-15 03:12:00,29.0,25.0,30.37,SW,221,1.0,4.0,83,0.00,,,0.08,,2013-01-15 08:12:00,
2013-01-15 03:22:00,29.0,25.0,30.37,SW,217,2.0,3.0,83,0.00,,,0.04,,2013-01-15 08:22:00,
2013-01-15 03:33:00,29.0,25.0,30.37,SSW,209,0.0,3.0,83,0.00,,,0.04,,2013-01-15 08:33:00,
2013-01-15 03:42:00,29.0,25.0,30.37,SSW,209,0.0,3.0,83,0.00,,,0.04,,2013-01-15 08:42:00,
2013-01-15 03:53:00,29.0,25.0,30.37,SSW,206,1.0,3.0,83,0.00,,,0.04,,2013-01-15 08:53:00,
2013-01-15 04:02:00,29.0,25.0,30.37,South,171,0.0,6.0,83,0.00,,,0.04,,2013-01-15 09:02:00,
2013-01-15 04:12:00,29.0,25.0,30.37,South,171,0.0,6.0,83,0.00,,,0.04,,2013-01-15 09:12:00,
2013-01-15 04:22:00,29.0,25.0,30.37,South,188,5.0,8.0,83,0.00,,,0.00,,2013-01-15 09:22:00,
2013-01-15 04:33:00,29.0,25.0,30.37,SW,217,3.0,4.0,83,0.00,,,0.00,,2013-01-15 09:33:00,
2013-01-15 04:42:00,29.0,25.0,30.37,SW,217,3.0,4.0,83,0.00,,,0.00,,2013-01-15 09:42:00,
2013-01-15 04:52:00,29.0,25.0,30.36,SW,217,0.0,3.0,83,0.00,,,0.00,,2013-01-15 09:52:00,
2013-01-15 05:02:00,30.0,24.0,30.36,West,259,0.0,3.0,78,0.00,,,0.00,,2013-01-15 10:02:00,
2013-01-15 05:12:00,30.0,24.0,30.36,West,259,0.0,3.0,78,0.00,,,0.00,,2013-01-15 10:12:00,
2013-01-15 05:22:00,30.0,23.0,30.35,WNW,294,0.0,2.0,76,0.00,,,0.00,,2013-01-15 10:22:00,
2013-01-15 05:32:00,30.0,23.0,30.36,SW,229,1.0,3.0,75,0.00,,,0.00,,2013-01-15 10:32:00,
2013-01-15 05:42:00,30.0,23.0,30.36,SW,229,1.0,3.0,75,0.00,,,0.00,,2013-01-15 10:42:00,
2013-01-15 05:52:00,30.0,23.0,30.35,SW,236,0.0,2.0,75,0.00,,,0.00,,2013-01-15 10:52:00,
2013-01-15 06:02:00,30.0,24.0,30.36,SW,236,0.0,2.0,77,0.00,,,0.00,,2013-01-15 11:02:00,
2013-01-15 06:12:00,29.0,25.0,30.36,SW,214,2.0,5.0,83,0.00,,,0.00,,2013-01-15 11:12:00,
2013-01-15 06:22:00,29.0,25.0,30.36,SW,214,2.0,5.0,83,0.00,,,0.00,,2013-01-15 11:22:00,
2013-01-15 06:33:00,29.0,25.0,30.36,SSW,201,2.0,5.0,84,0.00,,,0.00,,2013-01-15 11:33:00,
2013-01-15 06:42:00,29.0,25.0,30.36,SSW,201,2.0,5.0,84,0.00,,,0.00,,2013-01-15 11:42:00,
2013-01-15 06:53:00,28.0,24.0,30.37,SW,214,2.0,4.0,84,0.00,,,0.00,,2013-01-15 11:53:00,
2013-01-15 07:03:00,28.0,24.0,30.38,SW,215,2.0,4.0,84,0.00,,,0.00,,2013-01-15 12:03:00,
2013-01-15 07:12:00,28.0,24.0,30.38,SW,215,2.0,4.0,84,0.00,,,0.00,,2013-01-15 12:12:00,
2013-01-15 07:22:00,28.0,24.0,30.38,SW,215,2.0,4.0,84,0.00,,,0.00,,2013-01-15 12:22:00,
2013-01-15 07:33:00,28.0,24.0,30.39,SSW,208,1.0,4.0,84,0.00,,,0.00,,2013-01-15 12:33:00,
2013-01-15 07:43:00,28.0,24.0,30.39,SSW,208,1.0,4.0,84,0.00,,,0.00,,2013-01-15 12:43:00,
2013-01-15 07:53:00,28.0,24.0,30.40,SSW,210,2.0,4.0,84,0.00,,,0.00,,2013-01-15 12:53:00,
2013-01-15 08:03:00,28.0,24.0,30.40,SSW,209,2.0,3.0,84,0.00,,,0.00,,2013-01-15 13:03:00,
2013-01-15 08:12:00,28.0,24.0,30.40,SSW,209,2.0,3.0,84,0.00,,,0.00,,2013-01-15 13:12:00,
2013-01-15 08:23:00,28.0,24.0,30.40,SW,216,1.0,4.0,84,0.00,,,0.00,,2013-01-15 13:23:00,
2013-01-15 08:33:00,29.0,24.0,30.41,SW,217,2.0,4.0,81,0.00,,,0.00,,2013-01-15 13:33:00,
2013-01-15 08:43:00,29.0,24.0,30.41,SW,217,2.0,4.0,81,0.00,,,0.00,,2013-01-15 13:43:00,
2013-01-15 08:53:00,29.0,24.0,30.42,SW,225,2.0,3.0,82,0.00,,,0.00,,2013-01-15 13:53:00,
2013-01-15 09:03:00,29.0,24.0,30.42,SSW,207,3.0,6.0,82,0.00,,,0.00,,2013-01-15 14:03:00,
2013-01-15 09:12:00,29.0,24.0,30.42,SSW,207,3.0,6.0,82,0.00,,,0.00,,2013-01-15 14:12:00,
2013-01-15 09:23:00,29.0,24.0,30.42,SSW,213,2.0,5.0,81,0.00,,,0.00,,2013-01-15 14:23:00,
2013-01-15 09:33:00,29.0,24.0,30.42,SSW,206,2.0,3.0,81,0.00,,,0.00,,2013-01-15 14:33:00,
2013-01-15 09:43:00,29.0,24.0,30.42,SSW,206,2.0,3.0,81,0.00,,,0.00,,2013-01-15 14:43:00,
2013-01-15 09:54:00,30.0,25.0,30.43,SSW,198,3.0,5.0,80,0.00,,,0.00,,2013-01-15 14:54:00,
2013-01-15 10:03:00,30.0,24.0,30.42,SSW,200,1.0,4.0,79,0.00,,,0.00,,2013-01-15 15:03:00,
2013-01-15 10:12:00,30.0,24.0,30.42,SSW,200,1.0,4.0,79,0.00,,,0.00,,2013-01-15 15:12:00,
2013-01-15 10:23:00,31.0,25.0,30.42,SSW,213,1.0,5.0,77,0.00,,,0.00,,2013-01-15 15:23:00,
2013-01-15 10:33:00,31.0,24.0,30.41,SW,225,3.0,6.0,76,0.00,,,0.00,,2013-01-15 15:33:00,
2013-01-15 10:43:00,31.0,24.0,30.41,SW,225,3.0,6.0,76,0.00,,,0.00,,2013-01-15 15:43:00,
2013-01-15 10:53:00,31.0,24.0,30.41,SW,219,2.0,6.0,74,0.00,,,0.00,,2013-01-15 15:53:00,
2013-01-15 11:03:00,31.0,23.0,30.41,South,190,1.0,4.0,72,0.00,,,0.00,,2013-01-15 16:03:00,
2013-01-15 11:12:00,31.0,23.0,30.41,South,190,1.0,4.0,72,0.00,,,0.00,,2013-01-15 16:12:00,
2013-01-15 11:23:00,31.0,23.0,30.41,SSW,209,3.0,7.0,72,0.00,,,0.00,,2013-01-15 16:23:00,
2013-01-15 11:33:00,31.0,22.0,30.40,SSW,193,3.0,5.0,70,0.00,,,0.00,,2013-01-15 16:33:00,
2013-01-15 11:43:00,31.0,22.0,30.40,SSW,193,3.0,5.0,70,0.00,,,0.00,,2013-01-15 16:43:00,
2013-01-15 11:53:00,32.0,23.0,30.40,SW,217,2.0,5.0,69,0.00,,,0.00,,2013-01-15 16:53:00,
2013-01-15 12:03:00,31.0,22.0,30.38,SW,229,4.0,6.0,68,0.00,,,0.00,,2013-01-15 17:03:00,
2013-01-15 12:12:00,31.0,22.0,30.38,SW,229,4.0,6.0,68,0.00,,,0.00,,2013-01-15 17:12:00,
2013-01-15 12:22:00,32.0,23.0,30.37,SW,216,3.0,8.0,68,0.00,,,0.00,,2013-01-15 17:22:00,
2013-01-15 12:33:00,32.0,23.0,30.37,SW,220,3.0,5.0,68,0.00,,,0.00,,2013-01-15 17:33:00,
2013-01-15 12:42:00,32.0,23.0,30.37,SW,220,3.0,5.0,68,0.00,,,0.00,,2013-01-15 17:42:00,
2013-01-15 12:53:00,32.0,23.0,30.35,SW,221,2.0,6.0,68,0.00,,,0.00,,2013-01-15 17:53:00,
2013-01-15 13:03:00,32.0,23.0,30.35,SW,234,2.0,7.0,68,0.00,,,0.00,,2013-01-15 18:03:00,
2013-01-15 13:13:00,32.0,23.0,30.35,SW,234,2.0,7.0,68,0.00,,,0.00,,2013-01-15 18:13:00,
2013-01-15 13:23:00,32.0,23.0,30.35,WSW,242,2.0,6.0,68,0.00,,,0.00,,2013-01-15 18:23:00,
2013-01-15 13:33:00,32.0,23.0,30.35,South,184,1.0,5.0,68,0.00,,,0.00,,2013-01-15 18:33:00,
2013-01-15 13:43:00,32.0,23.0,30.35,South,184,1.0,5.0,68,0.00,,,0.00,,2013-01-15 18:43:00,
2013-01-15 13:53:00,32.0,23.0,30.35,SSE,155,1.0,6.0,68,0.00,,,0.00,,2013-01-15 18:53:00,
2013-01-15 14:03:00,32.0,23.0,30.35,WSW,238,2.0,8.0,68,0.00,,,0.00,,2013-01-15 19:03:00,
2013-01-15 14:12:00,32.0,23.0,30.35,WSW,238,2.0,8.0,68,0.00,,,0.00,,2013-01-15 19:12:00,
2013-01-15 14:23:00,32.0,22.0,30.34,NNW,329,1.0,7.0,67,0.00,,,0.00,,2013-01-15 19:23:00,
2013-01-15 14:33:00,32.0,23.0,30.34,WNW,290,1.0,6.0,68,0.00,,,0.00,,2013-01-15 19:33:00,
2013-01-15 14:42:00,32.0,23.0,30.34,WNW,290,1.0,6.0,68,0.00,,,0.00,,2013-01-15 19:42:00,
2013-01-15 14:53:00,32.0,22.0,30.34,North,349,2.0,6.0,65,0.00,,,0.00,,2013-01-15 19:53:00,
2013-01-15 15:03:00,32.0,22.0,30.33,WSW,251,0.0,5.0,65,0.00,,,0.00,,2013-01-15 20:03:00,
2013-01-15 15:12:00,32.0,22.0,30.33,WSW,251,0.0,5.0,65,0.00,,,0.00,,2013-01-15 20:12:00,
2013-01-15 15:23:00,32.0,21.0,30.32,North,350,0.0,4.0,64,0.00,,,0.00,,2013-01-15 20:23:00,
2013-01-15 15:33:00,32.0,21.0,30.34,SW,214,2.0,5.0,63,0.00,,,0.00,,2013-01-15 20:33:00,
2013-01-15 15:43:00,32.0,21.0,30.34,SW,214,2.0,5.0,63,0.00,,,0.00,,2013-01-15 20:43:00,
2013-01-15 15:53:00,32.0,20.0,30.34,South,190,2.0,5.0,61,0.00,,,0.00,,2013-01-15 20:53:00,
2013-01-15 16:03:00,33.0,21.0,30.34,SSW,210,1.0,6.0,60,0.00,,,0.00,,2013-01-15 21:03:00,
2013-01-15 16:13:00,33.0,21.0,30.34,SSW,210,1.0,6.0,60,0.00,,,0.00,,2013-01-15 21:13:00,
2013-01-15 16:23:00,33.0,19.0,30.35,SSW,206,1.0,3.0,57,0.00,,,0.00,,2013-01-15 21:23:00,
2013-01-15 16:33:00,33.0,21.0,30.34,SSW,205,1.0,3.0,60,0.00,,,0.00,,2013-01-15 21:33:00,
2013-01-15 16:43:00,33.0,21.0,30.34,SSW,205,1.0,3.0,60,0.00,,,0.00,,2013-01-15 21:43:00,
2013-01-15 16:53:00,32.0,20.0,30.33,SW,223,2.0,4.0,61,0.00,,,0.00,,2013-01-15 21:53:00,
2013-01-15 17:03:00,32.0,20.0,30.32,SW,222,1.0,3.0,62,0.00,,,0.00,,2013-01-15 22:03:00,
2013-01-15 17:12:00,32.0,20.0,30.32,SW,222,1.0,3.0,62,0.00,,,0.00,,2013-01-15 22:12:00,
2013-01-15 17:23:00,32.0,22.0,30.32,SW,222,0.0,2.0,65,0.00,,,0.00,,2013-01-15 22:23:00,
2013-01-15 17:33:00,31.0,22.0,30.32,SW,222,1.0,2.0,68,0.00,,,0.00,,2013-01-15 22:33:00,
2013-01-15 17:43:00,31.0,22.0,30.32,SW,222,1.0,2.0,68,0.00,,,0.00,,2013-01-15 22:43:00,
2013-01-15 17:53:00,31.0,23.0,30.31,SSW,208,1.0,2.0,72,0.00,,,0.00,,2013-01-15 22:53:00,
2013-01-15 18:02:00,31.0,24.0,30.31,SSE,159,1.0,3.0,75,0.00,,,0.00,,2013-01-15 23:02:00,
2013-01-15 18:13:00,31.0,24.0,30.31,SSE,159,1.0,3.0,75,0.00,,,0.00,,2013-01-15 23:13:00,
2013-01-15 18:22:00,30.0,23.0,30.31,South,190,2.0,4.0,74,0.00,,,0.00,,2013-01-15 23:22:00,
2013-01-15 18:33:00,31.0,24.0,30.31,South,186,1.0,3.0,75,0.00,,,0.00,,2013-01-15 23:33:00,
2013-01-15 18:43:00,31.0,24.0,30.31,South,186,1.0,3.0,75,0.00,,,0.00,,2013-01-15 23:43:00,
2013-01-15 18:53:00,30.0,23.0,30.31,South,189,2.0,4.0,74,0.00,,,0.00,,2013-01-15 23:53:00,
2013-01-15 19:03:00,31.0,24.0,30.31,SW,225,3.0,6.0,76,0.00,,,0.00,,2013-01-16 00:03:00,
2013-01-15 19:13:00,31.0,24.0,30.31,SW,225,3.0,6.0,76,0.00,,,0.00,,2013-01-16 00:13:00,
2013-01-15 19:22:00,30.0,24.0,30.31,SSW,213,2.0,4.0,77,0.00,,,0.00,,2013-01-16 00:22:00,
2013-01-15 19:33:00,30.0,24.0,30.29,SW,218,2.0,5.0,79,0.00,,,0.00,,2013-01-16 00:33:00,
2013-01-15 19:43:00,30.0,24.0,30.29,SW,218,2.0,5.0,79,0.00,,,0.00,,2013-01-16 00:43:00,
2013-01-15 19:53:00,30.0,24.0,30.29,SSW,207,1.0,3.0,79,0.00,,,0.00,,2013-01-16 00:53:00,
2013-01-15 20:03:00,30.0,25.0,30.28,SSW,195,2.0,4.0,80,0.00,,,0.00,,2013-01-16 01:03:00,
2013-01-15 20:12:00,30.0,25.0,30.28,SSW,195,2.0,4.0,80,0.00,,,0.00,,2013-01-16 01:12:00,
2013-01-15 20:22:00,30.0,25.0,30.28,SSW,211,1.0,3.0,80,0.00,,,0.00,,2013-01-16 01:22:00,
2013-01-15 20:33:00,30.0,25.0,30.29,SSW,211,1.0,2.0,81,0.00,,,0.00,,2013-01-16 01:33:00,
2013-01-15 20:42:00,30.0,25.0,30.29,SSW,211,1.0,2.0,81,0.00,,,0.00,,2013-01-16 01:42:00,
2013-01-15 20:53:00,30.0,25.0,30.27,SSW,209,2.0,3.0,81,0.00,,,0.00,,2013-01-16 01:53:00,
2013-01-15 21:03:00,30.0,25.0,30.26,South,191,2.0,5.0,81,0.00,,,0.00,,2013-01-16 02:03:00,
2013-01-15 21:12:00,30.0,25.0,30.26,South,191,2.0,5.0,81,0.00,,,0.00,,2013-01-16 02:12:00,
2013-01-15 21:22:00,30.0,25.0,30.26,SSW,195,2.0,4.0,82,0.00,,,0.00,,2013-01-16 02:22:00,
2013-01-15 21:32:00,30.0,25.0,30.26,SSW,193,1.0,3.0,81,0.00,,,0.00,,2013-01-16 02:32:00,
2013-01-15 21:42:00,30.0,25.0,30.26,SSW,193,1.0,3.0,81,0.00,,,0.00,,2013-01-16 02:42:00,
2013-01-15 21:53:00,30.0,25.0,30.26,SSW,193,1.0,2.0,81,0.00,,,0.00,,2013-01-16 02:53:00,
2013-01-15 22:03:00,30.0,25.0,30.25,SSW,193,1.0,2.0,82,0.00,,,0.00,,2013-01-16 03:03:00,
2013-01-15 22:12:00,30.0,25.0,30.24,SSW,193,1.0,2.0,82,0.00,,,0.00,,2013-01-16 03:12:00,
2013-01-15 22:22:00,30.0,25.0,30.24,SSW,193,1.0,2.0,82,0.00,,,0.00,,2013-01-16 03:22:00,
2013-01-15 22:33:00,30.0,25.0,30.23,SSW,193,0.0,0.0,82,0.00,,,0.00,,2013-01-16 03:33:00,
2013-01-15 22:43:00,30.0,25.0,30.23,SSW,193,0.0,0.0,82,0.00,,,0.00,,2013-01-16 03:43:00,
2013-01-15 22:53:00,30.0,25.0,30.23,South,190,1.0,2.0,83,0.00,,,0.00,,2013-01-16 03:53:00,
2013-01-15 23:02:00,30.0,26.0,30.21,South,190,0.0,1.0,84,0.00,,,0.00,,2013-01-16 04:02:00,
2013-01-15 23:12:00,30.0,26.0,30.21,South,190,0.0,1.0,84,0.00,,,0.00,,2013-01-16 04:12:00,
2013-01-15 23:22:00,30.0,25.0,30.22,South,190,0.0,0.0,83,0.00,,,0.00,,2013-01-16 04:22:00,
2013-01-15 23:33:00,30.0,26.0,30.20,South,190,0.0,1.0,84,0.00,,,0.00,,2013-01-16 04:33:00,
2013-01-15 23:42:00,30.0,26.0,30.20,South,190,0.0,1.0,84,0.00,,,0.00,,2013-01-16 04:42:00,
2013-01-15 23:52:00,30.0,26.0,30.20,South,190,0.0,1.0,84,0.00,,,0.00,,2013-01-16 04:52:00,